Location: Baia Mare
(47.6567°N, 23.5850°E)
Time: 16:41:57
(UTC+02:00)

ISS - Pass Details

Date: 07 September 2019
Orbit: 417 x 420 km, 51.6° (Epoch: 31 October)

Event Time Altitude Azimuth Distance (km) Brightness Sun altitude
Exits shadow 03:29:19 14° 64° (ENE) 1,275 -0.7 -29.4°
Drops below altitude 10° 03:29:56 10° 65° (ENE) 1,521 -0.2 -29.4°
Sets 03:32:03 0° 67° (ENE) 2,391 1.0 -29.2°
